CW4132 Weather Reports


Display with metric or nautical units.
time (UTC)temp
F
wind
direction
speed
MPH
gust
MPH
rain 1hr
in
rain 24hr
in
rain mn
in
humidity
%
barometer
mb
20260510173041 86 239 0.0 0.0 0.00 0.00 0.00 34 1016.1
20260510171531 83 239 0.0 0.0 0.00 0.00 0.00 32 1016.1
20260510170021 86 162 0.0 0.0 0.00 0.00 0.00 34 1016.2
20260510164502 86 162 0.0 0.0 0.00 0.00 0.00 32 1016.4
20260510163052 85 162 0.0 0.0 0.00 0.00 0.00 36 1016.6
20260510161534 84 232 0.0 0.0 0.00 0.00 0.00 38 1016.4
20260510160026 80 238 0.0 0.0 0.00 0.00 0.00 43 1016.7
20260510154559 80 239 0.0 0.0 0.00 0.00 0.00 41 1016.9
20260510154502 81 239 0.0 0.0 0.00 0.00 0.00 40 1017.0
20260510153050 81 239 0.0 0.0 0.00 0.00 0.00 43 1017.1
20260510151533 80 239 0.0 0.0 0.00 0.00 0.00 48 1016.9
20260510150020 77 239 0.0 0.0 0.00 0.00 0.00 48 1016.8
20260510144554 78 239 0.0 0.0 0.00 0.00 0.00 53 1016.9
20260510143030 77 239 0.0 0.0 0.00 0.00 0.00 57 1016.9
20260510141524 75 239 0.0 0.0 0.00 0.00 0.00 62 1016.7
20260510140055 73 239 0.0 0.0 0.00 0.00 0.00 64 1016.8
20260510134536 72 239 0.0 0.0 0.00 0.00 0.00 68 1016.9
20260510133016 68 239 0.0 0.0 0.00 0.00 0.00 77 1016.9
20260510131550 67 239 0.0 0.0 0.00 0.00 0.00 81 1016.7
20260510130037 66 239 0.0 0.0 0.00 0.00 0.00 85 1016.5
20260510124510 65 239 0.0 0.0 0.00 0.00 0.00 86 1016.3
20260510123010 63 239 0.0 0.0 0.00 0.00 0.00 91 1016.3
20260510121550 63 239 0.0 0.0 0.00 0.00 0.00 92 1016.2
20260510120044 62 239 0.0 0.0 0.00 0.00 0.00 93 1016.0
20260510114536 62 239 0.0 0.0 0.00 0.00 0.00 93 1015.9
20260510113014 61 239 0.0 0.0 0.00 0.00 0.00 93 1015.7
20260510111558 60 239 0.0 0.0 0.00 0.00 0.00 93 1015.6
20260510110045 60 239 0.0 0.0 0.00 0.00 0.00 93 1015.2
20260510104534 60 239 0.0 0.0 0.00 0.00 0.00 93 1015.0
20260510103016 60 239 0.0 0.0 0.00 0.00 0.00 92 1014.6
20260510101608 60 239 0.0 0.0 0.00 0.00 0.00 93 1014.5
20260510100044 60 239 0.0 0.0 0.00 0.00 0.00 92 1014.3
20260510094537 60 239 0.0 0.0 0.00 0.00 0.00 92 1014.0
20260510093016 60 239 0.0 0.0 0.00 0.00 0.00 92 1013.8
20260510091558 60 239 0.0 0.0 0.00 0.00 0.00 92 1013.8
20260510090050 60 239 0.0 0.0 0.00 0.00 0.00 92 1013.6
20260510084535 61 239 0.0 0.0 0.00 0.00 0.00 92 1013.3
20260510083020 61 239 0.0 0.0 0.00 0.00 0.00 92 1013.3
20260510081512 61 239 0.0 0.0 0.00 0.00 0.00 91 1013.3
20260510080044 61 239 0.0 0.0 0.00 0.00 0.00 92 1013.3
20260510074532 61 239 0.0 0.0 0.00 0.00 0.00 91 1013.2
20260510073018 61 239 0.0 0.0 0.00 0.00 0.00 91 1013.1
20260510071508 61 239 0.0 0.0 0.00 0.00 0.00 91 1013.2
20260510070054 61 239 0.0 0.0 0.00 0.00 0.00 90 1013.0
20260510064537 62 239 0.0 0.0 0.00 0.00 0.00 90 1013.1
20260510063025 62 239 0.0 0.0 0.00 0.00 0.00 89 1012.9
20260510061519 62 239 0.0 0.0 0.00 0.00 0.00 89 1013.1
20260510060058 63 239 0.0 0.0 0.00 0.00 0.00 89 1013.1
20260510054555 63 239 0.0 0.0 0.00 0.00 0.00 89 1013.3
20260510053034 63 239 0.0 0.0 0.00 0.00 0.00 89 1013.3
20260510051530 63 239 0.0 0.0 0.00 0.00 0.00 88 1013.6
20260510050011 63 239 0.0 0.0 0.00 0.00 0.00 88 1013.6
20260510044551 63 239 0.0 0.0 0.00 0.00 0.00 89 1013.6
20260510043038 63 239 0.0 0.0 0.00 0.00 0.00 88 1013.6
20260510041526 63 239 0.0 0.0 0.00 0.00 0.00 89 1013.6
20260510040011 63 239 0.0 0.0 0.00 0.00 0.00 90 1013.5
20260510034555 62 239 0.0 0.0 0.00 0.00 0.00 90 1013.4
20260510033047 62 239 0.0 0.0 0.00 0.00 0.00 90 1013.3
20260510031546 62 239 0.0 0.0 0.00 0.00 0.00 89 1013.4
20260510030016 62 239 0.0 0.0 0.00 0.00 0.00 88 1013.3
20260510024612 62 239 0.0 0.0 0.00 0.00 0.00 88 1013.2
20260510024502 62 239 0.0 0.0 0.00 0.00 0.00 88 1013.3
20260510023044 62 239 0.0 0.0 0.00 0.00 0.00 88 1013.2
20260510021533 63 239 0.0 0.0 0.00 0.00 0.00 86 1013.5
20260510020024 63 239 0.0 0.0 0.00 0.00 0.00 85 1013.1
20260510014512 64 239 0.0 0.0 0.00 0.00 0.00 84 1012.9
20260510013104 64 239 0.0 0.0 0.00 0.00 0.00 83 1012.6
20260510011538 65 239 0.0 0.0 0.00 0.00 0.00 81 1012.4
20260510010028 66 239 0.0 0.0 0.00 0.00 0.00 80 1012.3
20260510004512 67 239 0.0 0.0 0.00 0.00 0.00 78 1012.4
20260510003058 68 239 0.0 0.0 0.00 0.00 0.00 75 1012.4
20260510001550 70 239 0.0 0.0 0.00 0.00 0.00 72 1012.3
20260510000031 70 239 0.0 0.0 0.00 0.00 0.00 71 1012.1